User: anonymous
Location: Columbia
(38.9520°N, 92.3340°W)
Time: 22:18:08
(UTC-05:00)
Language:

SJ-11-01 - Orbit

View from above orbital plane
View from above orbital plane
View from above satellite
View from above satellite

Ground track
Ground track

The orbit data is extracted from the following two-line orbital elements,

1 36088U 09061A   14113.69638195  .00000925  00000-0  20208-3 0  9450
2 36088 098.0422 163.6244 0009633 250.6600 109.3553 14.60006622236787
Epoch (UTC): 23 April 2014 16:42:47
Eccentricity: 0.0009633
inclination: 98.0422°
perigee height: 686 km
apogee height: 700 km
right ascension of ascending node: 163.6244°
argument of perigee: 250.6600°
revolutions per day: 14.60006622
mean anomaly at epoch: 109.3553°
orbit number at epoch: 23678

The dashed part of the orbit path shows where the satellite is in the earth's shadow,  

DLR